This is the latest recevied weather packets stored in our database for station/object BAGASKAR. If no packets are shown the sender has not sent any weather packets the latest 10 day(s).
| Time | Temp. | Humidity | Pressure | Rain* | Wind** | Luminosity | Snow |
|---|---|---|---|---|---|---|---|
| 1777795628 | 8.33° C | 100% | 1008.2 hPa | - | - | - | - |
| 1777794428 | 9.44° C | 100% | 1008 hPa | - | - | - | - |
| 1777793227 | 9.44° C | 94% | 1007.7 hPa | - | - | - | - |
| 1777792027 | 8.89° C | 100% | 1007.4 hPa | - | - | - | - |
| 1777790827 | 7.78° C | 100% | 1007.4 hPa | - | - | - | - |
| 1777789627 | 7.78° C | 100% | 1007.2 hPa | - | - | - | - |
| 1777788427 | 7.78° C | 100% | 1007.1 hPa | - | - | - | - |
| 1777787227 | 7.78° C | 100% | 1006.6 hPa | - | - | - | - |
| 1777786027 | 7.78° C | 100% | 1006.6 hPa | - | - | - | - |
| 1777784827 | 7.78° C | 100% | 1006.3 hPa | - | - | - | - |
| 1777783627 | 6.67° C | 100% | 1006.2 hPa | - | - | - | - |
| 1777782427 | 6.11° C | 100% | 1005.9 hPa | - | - | - | - |
| 1777781226 | 6.11° C | 100% | 1006 hPa | - | - | - | - |
| 1777780027 | 5.56° C | 100% | 1005.9 hPa | - | - | - | - |
| 1777778827 | 5.56° C | 100% | 1005.6 hPa | - | - | - | - |
| 1777777627 | 5.56° C | 100% | 1005.7 hPa | - | - | - | - |
| 1777776427 | 5.56° C | 100% | 1005.7 hPa | - | - | - | - |
| 1777775226 | 5° C | 100% | 1005.8 hPa | - | - | - | - |
| 1777774026 | 5.56° C | 100% | 1005.8 hPa | - | - | - | - |
| 1777772826 | 5.56° C | 100% | 1005.4 hPa | - | - | - | - |
| 1777771626 | 5.56° C | 100% | 1005.5 hPa | - | - | - | - |
| 1777770426 | 5.56° C | 100% | 1005.7 hPa | - | - | - | - |
| 1777769226 | 5.56° C | 100% | 1005.9 hPa | - | - | - | - |
| 1777768026 | 5.56° C | 100% | 1006.1 hPa | - | - | - | - |
| 1777766826 | 5.56° C | 100% | 1006.3 hPa | - | - | - | - |
* Rain since midnight (hover to see other rain measurements)
** Current wind speed in m/s (hover to see current wind gust speed)